FLOCK 4E'-9 (46815 NORAD) Tracking and Keplerian Element Data

This shows tracking and keplerian element data for the satellite.

Feedback or suggestion? Click here.




ElementValue
Catalog46815
NameFLOCK 4E'-9
Epoch Orbit428
Epoch Day331.18636847
Epoch Year2020
RAAN31.2701
Inclination97.4938
Eccentricity0.0011717
Argument of Perigee219.5598
Mean Anonmoly224.8462
Mean Motion15.15951341
Decay Rate3.99E-05
L11 46815U 20077C 20331.18636847 .00003990 00000-0 21121-3 0 9993
L22 46815 97.4938 31.2701 0011717 219.5598 224.8462 15.15951341 4283

Live tracking and technical data element details for FLOCK 4E'-9 (NORAD 46815). FLOCK 4E'-9 can be tracked NOW for your location showing map with azimuth and elevation plus other details from your city location.

Track the satellite on the map from your city or location and see movement details for azimuth, elevation, latitude, longitude, range, height, and movement on the map or in text.







IsCatalogInMostPopularTable: catalog: 46815, numindb: 7
Update: records affected: 1



GetName: 46815 FLOCK 4E'-9

Hit Count: updated at: Thu, 26 Nov 2020 17:56:31 GMT